This is the latest recevied weather packets stored in our database for station/object KN6WGU. If no packets are shown the sender has not sent any weather packets the latest 10 day(s).
| Time | Temp. | Humidity | Pressure | Rain* | Wind** | Luminosity | Snow |
|---|---|---|---|---|---|---|---|
| 1778248516 | 12.22° C | 73% | 1005.9 hPa | 0 mm | - | 103 W/m² | - |
| 1778248212 | 12.22° C | 74% | 1005.9 hPa | 0 mm | - | 107 W/m² | - |
| 1778247909 | 12.22° C | 74% | 1005.9 hPa | 0 mm | - | 149 W/m² | - |
| 1778247606 | 12.22° C | 74% | 1005.8 hPa | 0 mm | - | 316 W/m² | - |
| 1778247303 | 11.67° C | 76% | 1006.1 hPa | 0 mm | - | 266 W/m² | - |
| 1778246999 | 11.11° C | 77% | 1006.2 hPa | 0 mm | - | 284 W/m² | - |
| 1778246697 | 11.11° C | 78% | 1006.1 hPa | 0 mm | - | 138 W/m² | - |
| 1778246394 | 10.56° C | 78% | 1006.2 hPa | 0 mm | - | 85 W/m² | - |
| 1778246089 | 10.56° C | 81% | 1006 hPa | 0 mm | - | 104 W/m² | - |
| 1778245786 | 10.56° C | 79% | 1006.2 hPa | 0 mm | - | 103 W/m² | - |
| 1778245484 | 10° C | 80% | 1006 hPa | 0 mm | - | 118 W/m² | - |
| 1778245179 | 10° C | 80% | 1006.1 hPa | 0 mm | - | 49 W/m² | - |
| 1778244875 | 10° C | 82% | 1006.1 hPa | 0 mm | - | 66 W/m² | - |
| 1778244574 | 10° C | 85% | 1006.2 hPa | 0 mm | - | 85 W/m² | - |
| 1778244271 | 9.44° C | 85% | 1006 hPa | 1.78 mm | - | 163 W/m² | - |
| 1778243968 | 9.44° C | 84% | 1005.8 hPa | 1.78 mm | - | 85 W/m² | - |
| 1778243667 | 9.44° C | 83% | 1005.8 hPa | 1.27 mm | - | 30 W/m² | - |
| 1778243363 | 9.44° C | 84% | 1005.9 hPa | 3.05 mm | - | 30 W/m² | - |
| 1778243060 | 10° C | 81% | 1005.9 hPa | 3.05 mm | - | 36 W/m² | - |
| 1778242757 | 10° C | 80% | 1006.5 hPa | 0 mm | - | 11 W/m² | - |
| 1778242455 | 10° C | 79% | 1006.1 hPa | 0 mm | - | 19 W/m² | - |
| 1778242153 | 10° C | 76% | 1005.9 hPa | 0 mm | - | 18 W/m² | - |
| 1778241850 | 10° C | 75% | 1005.9 hPa | 0 mm | - | 11 W/m² | - |
| 1778241547 | 10° C | 75% | 1005.8 hPa | 0 mm | - | 9 W/m² | - |
| 1778241245 | 10.56° C | 74% | 1005.4 hPa | 0 mm | - | 22 W/m² | - |
* Rain latest hour (hover to see other rain measurements)
** Current wind speed in m/s (hover to see current wind gust speed)